Location: Unspecified
(12.6500°N, 0.0000°E)
Time: 17:17:48
(UTC+00:00)

ISS - Visible Passes

Search period start: 20 May 2019 00:00
Search period end: 30 May 2019 00:00
Orbit: 408 x 410 km, 51.6° (Epoch: 21 May)

Date Brightness Start Highest point End Pass type
(mag) Time Alt. Az. Time Alt. Az. Time Alt. Az.
20 May -1.3 04:10:44 10° N 04:13:28 24° NE 04:16:13 10° ESE visible
21 May -0.2 03:21:40 10° NNE 03:22:31 11° NE 03:23:22 10° ENE visible
21 May -2.8 04:56:10 10° WNW 04:59:00 26° SW 05:01:50 10° S visible
22 May -2.9 04:09:16 38° SSE 04:09:16 38° SSE 04:11:26 10° SSE visible
